Hundreds of Positions Available Nationwide

Apply for an Exciting Career Opportunity!


The following jobs are currently available.
Click on the job to find out more about the requirements for the position.

#Job IDTitle# OpeningsLocationRateDurationPostedCategory 
1 189010 Material Handler I - 1St Shift 1Memphis, TNUp to $14.00 DOE12 mos01/22/2021MANO,
2 189012 QC Associate (I) 1Alachua, FLUp to $16.96 DOE3 mos01/22/2021MANO,
3 189013 QC Associate (I) 1Alachua, FLUp to $16.96 DOE4 mos01/22/2021MANO,
4 189015 Testing Operator 1Madison, WIUp to $15.00 DOE10 mos01/22/2021MANO,
5 189017 Test Technician 1Scotts Valley, CA$28 to $35.00 DOE12 mos01/22/2021MANO,
6 189021 Associate Manufacturing Technician 1Pleasanton, CAUp to $20.90 DOE12 Months01/22/2021MANO,
7 189023 Assembler 1Milwaukee, WI$15 to $16.00 DOE12 months01/22/2021MANO,
8 188985 Manufacturing Staging Technician 1Frederick, MDUp to $19.79 DOE12 mos01/21/2021MANO,
9 188986 Warehouse Associate 7Lugoff, SC$DOE12 months01/21/2021MANO,
10 188987 Manufacturing Technician 1Framingham, MAUp to $23.00 DOE12 mos01/21/2021MANO,
11 188990 Aircraft Structures Mechanic 3 2Moss Point, MS$DOE12 months01/21/2021MANO,
12 188993 Drivematic Operator 4Stuart, FLUp to $30.00 DOE6+ months01/21/2021MANO,
13 188999 Aircraft Structures Mechanic 3 23Saint Augustine, FL$DOE6 months01/21/2021MANO,
14 189000 Assembler 2Marion, MA$DOE12 Months01/21/2021MANO,
15 189002 Assembler 4Clearwater, FL$DOE11 Months01/21/2021MANO,
16 189003 Avionic Technician 1Nellis AFB, NV$DOE12 Months01/21/2021MANO, S
17 189004 Electrical Technician 1Nellis AFB, NV$DOE12 Months01/21/2021MANO, S
18 189006 Manufacturing Technician 1Austin, TX$DOE5 Months01/21/2021MANO,
19 189007 Manufacturing Technician I 1Austin, TXUp to $16.00 DOE5 Months01/21/2021MANO,
20 189008 Manufacturing Technician I 1Austin, TX$DOE5 Months01/21/2021MANO,
21 189009 Manufacturing Technician I 1Austin, TX$DOE5 Months01/21/2021MANO,
22 188965 Electrical Technician 2Tinker AFB, OK$DOE12 Months01/20/2021MANO, S
23 188968 General Mechanic 1Tinker AFB, OK$DOE12 Months01/20/2021MANO, S
24 188969 Structures Mechanic 2Tinker AFB, OK$DOE12 Months01/20/2021MANO, S
25 188970 Maintenance Technician 2 1Goleta, CA$17.56 to $21.95 DOE12 months01/20/2021MANO,
26 188972 Maintenance Technician 1 1Goleta, CA$14.51 to $18.14 DOE12 months01/20/2021MANO,
27 188978 Manufacturing Operator 1Logan, UTUp to $15.00 DOE12 Months01/20/2021MANO,
28 188980 Manufacturing Test Tech A 2Northampton, MAUp to $23.00 DOE5 Months01/20/2021MANO, OM
29 188913 COVID Sample Coordinator 1Franklin, MAUp to $16.00 DOE11 mos01/19/2021MANO,
30 188915 Biopharmaceutical Technician I 1St. Louis, MOUp to $21.00 DOE6 mos01/19/2021MANO,
31 188916 Biopharmaceutical Technician I 1St. Louis, MOUp to $21.00 DOE6 mos01/19/2021MANO,
32 188917 Test Technician 1St. Louis, MOUp to $16.00 DOE8 mos01/19/2021MANO,
33 188922 Associate Manufacturing Technician 1Pleasanton, CAUp to $22.99 DOE6 mos01/19/2021MANO,
34 188924 Production Test Technician 1Manassas, VA$DOE12 Months01/19/2021MANO, S
35 188925 Product Repair/Mod Technician C 2Klamath Falls, OR$DOE12 Months01/19/2021MANO, I
36 188927 Aircraft Fuel Cell Technician 3 1Lake Charles, LA$27.68 to $34.60 DOE6 months01/19/2021MANO,
37 188929 Assembler 1Salt Lake City, UTUp to $18.00 DOE12 Months01/19/2021MANO,
38 188930 Production Planner 1Lexington, KY$DOE5 Months01/19/2021MANO, S
39 188931 Supply Chain Professional 1Lexington, KY$DOE5 Months01/19/2021MANO, S
40 188937 Photo-Optics Technician 1Lexington, KY$DOE9 Months01/19/2021MANO, S
41 188939 Mechanical Inspector 1Menlo Park, CAUp to $35.00 DOE3 Months01/19/2021MANO,
42 188940 Machinist 1Stennis, MS$DOE5 Months01/19/2021MANO,
43 188943 Quality Control Inspector 1Petaluma, CAUp to $22.55 DOE12 Months01/19/2021MANO,
44 188945 Quality Control Inspector 1Petaluma, CAUp to $22.55 DOE12 Months01/19/2021MANO,
45 188946 Lab System Validator 1Grand Island, NYUp to $17.00 DOE6 Months01/19/2021MANO,
46 188947 Lab System Validator 1Grand Island, NYUp to $17.00 DOE6 Months01/19/2021MANO,
47 188949 Manufacturing Technician 1Tempe, AZ$DOE10 Months01/19/2021MANO,
48 188883 Lab Technician 1Santa Clara, CAUp to $20.99 DOE12 mos01/18/2021MANO,
49 188897 Sheet Metal Mechanic 1Greenville, SC$DOE12 Months01/18/2021MANO,
50 188905 QC Microbiology Analyst 1Alachua, FLUp to $16.96 DOE6 Months01/18/2021MANO,
51 188909 Associate Equipment Operator 1Bohemia, NYUp to $23.00 DOE12 Months01/18/2021MANO,
52 188911 Associate Manufacturing Technician 1Pleasanton, CAUp to $19.00 DOE6 Months01/18/2021MANO,
53 188912 Manufacturing Technician 2 1Austin, TX$DOE12 Months01/18/2021MANO,
54 188867 Aircraft Mechanic 3Mesa, AZ$DOE12 Months01/15/2021MANHSM,
55 188872 Product Repair/Modification Technician C 1Seymour Johnson AFB, NC$DOE12 Months01/15/2021MANO, S
56 188874 Tool Coordinator 2 1Seymour Johnson AFB, NCUp to $21.87 DOE12 Months01/15/2021MANO, S
57 188876 E/M Assembler B 1Anaheim, CAUp to $17.50 DOE12 Months01/15/2021MANO,
58 188877 Test Technician C 1Anaheim, CA$26 to $28.00 DOE12 Months01/15/2021MANO,
59 188878 Assembler A 3Gardena, CA$17 to $19.00 DOE12 Months01/15/2021MANO,
60 188836 Manufacturing Technician I 1Austin, TX$DOE5 mos01/14/2021MANO,
61 188837 Manufacturing Technician I 1Austin, TX$DOE5 mos01/14/2021MANO,
62 188838 Manufacturing Technician I 1Austin, TX$DOE5 mos01/14/2021MANO,
63 188839 Manufacturing Technician I 1Austin, TX$DOE5 mos01/14/2021MANO,
64 188840 Manufacturing Technician I 1Austin, TX$DOE5 mos01/14/2021MANO,
65 188841 Assembler 10Cypress, CAUp to $14.00 DOE5 months01/14/2021MANO,
66 188842 Manufacturing Technician I 1Austin, TX$DOE5 mos01/14/2021MANO,
67 188845 Assembler 5Marion, MA$DOE12 Months01/14/2021MANO,
68 188846 Production Test Technician 1Marion, MA$DOE12 Months01/14/2021MANO,
69 188850 Final Assembly Inspector 3 1Waco, TXUp to $61.05 DOE6 months01/14/2021MANHSM,
70 188853 Lab Technician 1Alachua, FL$DOE8 Months01/14/2021MANO,
71 188856 Assembler 1Marion, MA$DOE12 Months01/14/2021MANO, OM
72 188857 Assembler 1Marion, MA$DOE12 Months01/14/2021MANO,
73 188820 Lab Technician 1Axis, AL$DOE12 months01/13/2021MANO,
74 188825 Sheet Metal Mechanic 10Greenville, SC$DOE12 Months01/13/2021MANO,
75 188828 E/M Assembler B 7Anaheim, CAUp to $17.50 DOE12 Months01/13/2021MANO,
76 188834 Inspector 1Marion, MA$DOE12 Months01/13/2021MANO, OM
77 188800 Associate Equipment Operator 1Bohemia, NYUp to $20.99 DOE12 months01/12/2021MANO,
78 188805 Cable Technician 2Orlando, FL$DOE6 Months01/12/2021MANO,
79 188806 Test Technician 2Orlando, FL$DOE12 Months01/12/2021MANO,
80 188777 Manufacturing Technician 1Pleasanton, CAUp to $19.00 DOE12 mos01/11/2021MANO,
81 188778 Test Technician 1Franklin, MAUp to $20.00 DOE12 mos01/11/2021MANO,
82 188782 Test Technician 1Franklin, MAUp to $20.00 DOE12 mos01/11/2021MANO,
83 188783 Test Technician 1Franklin, MAUp to $20.00 DOE12 mos01/11/2021MANO,
84 188758 Manufacturing Operator 1Skaneateles, NY$DOE12 months01/08/2021MANO,
85 188759 Manufacturing Operator 1Skaneateles, NY$DOE12 months01/08/2021MANO,
86 188767 Associate Manufacturing Technician 1Pleasanton, CAUp to $20.90 DOE12 Months01/08/2021MANO,
87 188768 Associate Manufacturing Technician 1Pleasanton, CAUp to $20.90 DOE12 Months01/08/2021MANO,
88 188770 Associate Manufacturing Technician 1Pleasanton, CAUp to $19.00 DOE12 Months01/08/2021MANO,
89 188771 Associate Manufacturing Technician 1Pleasanton, CAUp to $19.00 DOE12 Months01/08/2021MANO,
90 188772 Associate Manufacturing Technician 1Pleasanton, CAUp to $22.99 DOE5 Months01/08/2021MANO,
91 188773 Associate Manufacturing Technicain 1Pleasanton, CAUp to $22.99 DOE5 Months01/08/2021MANO,
92 188774 Incoming Inspector 1Santa Clara, CA$DOE6 Months01/08/2021MANO,
93 188726 Warehouse Associate 2Lugoff, SC$DOE12 months01/07/2021MANO,
94 188739 Manufacturing Operator 1Skaneateles, NY$DOE12 months01/07/2021MANO,
95 188743 Manufacturing Operator 1Skaneateles, NY$DOE12 months01/07/2021MANO,
96 188747 Manufacturing Operator 1Skaneateles, NY$DOE12 months01/07/2021MANO,
97 188711 Label Dispatch Operator 1Frederick, MDUp to $20.69 DOE12 mos01/06/2021MANO,
98 188712 Label Dispatch Operator 1Frederick, MDUp to $20.69 DOE12 mos01/06/2021MANO,
99 188715 QC Technician 1Carlsbad, CAUp to $22.00 DOE12 mos01/06/2021MANO,
100 188717 Assembler 1Lugoff, SC$DOE12 months01/06/2021MANO,
101 188722 Assembler 1Pinellas Park, FL$DOE 01/06/2021MANO,
102 188671 Quality Control Inspector 3Jacksonville, FL$DOE12 months01/04/2021MANHSM, S
103 188672 Formulation Technician I 1Fremont, CAUp to $22.42 DOE1 mo01/04/2021MANO,
104 188680 Flight Controls Technician 1San Antonio, TX$27 to $30.00 DOE6 Months01/04/2021MANO,
105 188655 Manufacturing Operator 1Asheville, NCUp to $14.00 DOE12 Months12/29/2020MANO,
106 188657 Production Supervisor 1Detroit, MIUp to $28.00 DOE12 Months12/29/2020MANO,
107 188660 Associate Manufacturing Technician 1Pleasanton, CAUp to $20.90 DOE12 Months12/29/2020MANHSM,
108 188661 Operator 1, Manufacturing 1Eugene, ORUp to $14.50 DOE3 Months12/29/2020MANO,
109 188650 Manufacturing Operator 1Bedford, MA$DOE12 mos12/28/2020MANO,
110 188652 Manufacturing Operator 1Princeton, NJUp to $30.00 DOE6 Months12/28/2020MANO,
111 188653 Product Repair/Mod Technician C 3MCAS Miramar, CA$DOE12 Months12/28/2020MANO, OM
112 188635 Aircraft Structures Mechanic II 100San Antonio, TX$DOE6 Months12/23/2020MANO,
113 188642 Technician 2Bothell, WA$DOE6 Months12/23/2020MANO,
114 188643 Quality Inspector 1College Park, GA$18 to $22.00 DOE6 Months12/23/2020MANO,
115 188644 Technician II 1College Park, GA$15 to $17.00 DOE6 Months12/23/2020MANO,
116 188628 Tissue Culture Associate I - Manufacturing 1Carlsbad, CAUp to $24.00 DOE7 mos12/21/2020MANO,
117 188611 QC Technician 1Middletown, VAUp to $17.00 DOE12 mos12/17/2020MANO,
118 188614 Electronic Technician 2New Brighton, MN$19.93 to $23.84 DOE7 months12/17/2020MANO,
119 188617 Product Acceptance Specialist B 100North Charleston, SC$DOE6 Months12/17/2020MANO,
120 188589 Manufacturing Technician 1Framingham, MAUp to $23.00 DOE12 mos12/16/2020MANO,
121 188598 QC Technician 1Middletown, VAUp to $17.00 DOE12 Months12/16/2020MANO,
122 188599 QC Technician 1Middletown, VAUp to $17.00 DOE12 Months12/16/2020MANO,
123 188572 QC Associate I 1Cambridge, MAUp to $42.85 DOE5 Months12/14/2020MANO,
124 188558 Mechanical Technician 2San Leandro, CA$25 to $30.00 DOE12 Months12/11/2020MANO,
125 188559 Welder Electro-Mechanical Assembly Technician 1San Leandro, CA$35 to $36.00 DOE12 Months12/11/2020MANO,
126 188560 Mechanical Assembly Technician 2San Leandro, CA$25 to $30.00 DOE12 Months12/11/2020MANO,
127 188562 Associate Manufacturing Technician 1Pleasanton, CAUp to $19.00 DOE12 Months12/11/2020MANHSM,
128 188541 Test Technician 1Franklin, MA$DOE12 mos12/10/2020MANO,
129 188515 Manufacturing Operator 1Carlsbad, CA$DOE12 Months12/08/2020MANO,
130 188476 Sheet Metal Mechanic - DOT 10Greenville, SC$DOE12 Months12/07/2020MANO,
131 188466 Manufacturing Technician Level 4 3Lanham, MDUp to $27.00 DOE12 months, CTH12/04/2020MANO,
132 188467 Manufacturing Technician 1Pleasanton, CA$DOE12 Months12/04/2020MANO,
133 188473 QA Specialist 1West Hills, CA$22 to $25.00 DOE6 Months12/04/2020MANHSM,
134 188403 Assembler 10Dry Ridge, KY$DOE12 months12/01/2020MANO,
135 188404 Assembler 10Dry Ridge, KY$DOE12 months12/01/2020MANO,
136 188405 Assembler 10Dry Ridge, KY$DOE12 months12/01/2020MANO,
137 188406 Assembler 10Dry Ridge, KY$DOE12 months12/01/2020MANO,
138 188397 Test & Evaluation Lab Technician 2 5Berkeley, MO$DOE6 Months11/30/2020MANO,
139 188370 Inspector 1Petaluma, CAUp to $18.14 DOE12 mos11/25/2020MANO,
140 188386 RF Test Technician 3 1Chelmsford, MAUp to $30.00 DOE6 Months11/25/2020MANO, S
141 188317 Equipment Services Technician 1Pleasanton, CAUp to $29.99 DOE12 mos11/20/2020MANO,
142 188318 Equipment Services Technician 1Pleasanton, CAUp to $29.99 DOE12 mos11/20/2020MANO,
143 188282 Associate Manufacturing Technician 1Pleasanton, CAUp to $20.90 DOE12 mos11/19/2020MANO,
144 188284 Maintenance Mechanic 1Pinellas, FL$DOE12 Months11/19/2020MANO,
145 188307 QC Technician 1Bedford, MAUp to $22.00 DOE12 Months11/19/2020MANO,
146 188258 Tool Coordinator 2 1New Orleans, LA$DOE12 Months11/18/2020MANO, S
147 188259 Product Repair/Mod Technician C 3New Orleans, LA$DOE12 Months11/18/2020MANO, S
148 188261 Structures Product Repair/Mod Tech C 2New Orleans, LA$DOE12 Months11/18/2020MANO, S
149 188279 Financial Analyst III 1West Hills, CAUp to $29.00 DOE12 Months11/18/2020MANO,
150 188246 Assembler B 5El Segundo, CA$DOE6 Months11/17/2020MANHSM,
151 188250 Receiving Inspector 1Archbald, PAUp to $25.00 DOE6 Months11/17/2020MANO,
152 188210 Technical Trainer 1Littleton, CO$DOE11 Months11/13/2020MANO,
153 188185 Product Repair/Mod Tech C 3Tinker AFB, OK$DOE3 Months11/12/2020MANHSM, IS
154 188153 Inspector 1Clearwater, FL$DOE12 Months11/10/2020MANO,
155 188101 Assembler B 1El Segundo, CA$DOE6 months11/06/2020MANHSM,
156 188104 Satellite Mechanisms Technician 13El Segundo, CA$DOE6 months11/06/2020MANHSM,
157 188106 Assembler 1Dry Ridge, KY$DOE12 months11/06/2020MANO,
158 188107 Production Operator 1Wauwatosa, WI$16 to $16.50 DOE2 months11/06/2020MANO,
159 188114 Manufacturing Technician 1Asheville, NCUp to $15.00 DOE12 Months11/06/2020MANO,
160 188117 Equipment Services Technician 1Pleasanton, CAUp to $30.00 DOE12 Months11/06/2020MANO,
161 188087 Manufacturing Operator 1Carlsbad, CAUp to $15.00 DOE12 mos11/05/2020MANO,
162 188088 Manufacturing Operator 1Carlsbad, CAUp to $15.00 DOE12 MOS11/05/2020MANO,
163 188077 Assembler C 1Sylmar, CA$DOE9 Months11/04/2020MANO,
164 188079 Test Technician 2 1Chelmsford, MAUp to $25.00 DOE3 Months11/04/2020MANO, OM
165 188029 RF Test Technician 3 1Chelmsford, MAUp to $35.00 DOE3 Months11/02/2020MANO, I
166 188031 Test Technician 2 1Chelmsford, MAUp to $28.00 DOE3 Months11/02/2020MANO, OM
167 188032 Machinist 2 1Chelmsford, MAUp to $32.00 DOE4 Months11/02/2020MANO, OM
168 188024 General Mechanic Level 2 9Jacksonville, FL$DOE12 Months10/30/2020MANHSM, OM
169 187988 Electronics Technician 8Fort Worth, TX$DOE12 Months10/28/2020MANHSM,
170 187996 Painter 3Owego, NY$DOE12 Months10/28/2020MANO,
171 187923 General Inspector 2Archbald, PAUp to $25.00 DOE6 Months10/26/2020MANO,
172 187926 Validation Technician 1Petaluma, CAUp to $24.00 DOE12 Months10/26/2020MANO,
173 187876 Warehouse Associate - SC 5Lugoff, SC$DOE12 months10/21/2020MANO,
174 187848 Assembler A 4Sylmar, CA$DOE12 Months10/20/2020MANO,
175 187828 Product Repair/Mod Technician C 4NAS Lemoore, CA$DOE12 Months10/19/2020MANO, S
176 187837 Lead Manufacturing Technician 1Pleasanton, CA$DOE12 Months10/19/2020MANHSM,
177 187786 RF Test Technician 1Chelmsford, MAUp to $30.00 DOE6 Months10/15/2020MANO, S
178 187713 Product Repair/Mod Technician C 3NAS Whidbey Island, WA$DOE12 Months10/13/2020MANO, S
179 187715 Product Repair/Mod Technician C 3NAS Whidbey Island, WA$DOE12 Months10/13/2020MANHSM, S
180 187716 Product Repair/Mod Technician C 4NAS Whidbey Island, W$DOE12 Months10/13/2020MANO, S
181 187731 Operator 1, Manufacturing 1Eugene, ORUp to $14.50 DOE12 Months10/13/2020MANO,
182 187675 Assembly Technician (18) 18Dry Ridge, KY$DOE12 months10/09/2020MANO,
183 187632 Test & Evaluation Lab Tech 1 1Berkeley, MO$DOE6 Months10/07/2020MANHSM, OM
184 187526 PDC Machine Operator 1Littleton, CO$DOE5 Months09/30/2020MANO,
185 187529 Manufacturing Technician 1Baltimore, MDUp to $19.23 DOE1 year09/30/2020MANHSM,
186 187453 Composites Fabricator I 2Ashburn, VA$22 to $26.00 DOE12 Months09/25/2020MANO, OM
187 187388 CDS Machine Operator 1Littleton, CO$DOE3 Months09/22/2020MANO,
188 187366 Maintenance Mechanic Assistant 1Pinellas Park, FL$DOE12 Months09/21/2020MANO,
189 187248 Operator 1, Manufacturing 1Eugene, ORUp to $14.50 DOE12 mos09/14/2020MANO,
190 187178 Aircraft Painter 3Greenville, SC$DOE3 Months09/08/2020MANO,
191 186835 Maintenance Associate II 1Cincinnati, OH$18 to $20.00 DOE4 Months08/13/2020MANO, OM
192 186019 Aircraft Painter 3Stuart, FLUp to $25.00 DOE6+ months06/04/2020MANO,
193 185757 Assembler 1Pinellas Park, FL$DOE 05/07/2020MANO,
194 185625 Aircraft Mechanic II 4Jacksonville, FL$DOE12 months04/23/2020MANHSM,
195 179369 Machinist 1Daytona Beach, FL$DOE7 Months05/15/2019MANHSM,
196 177260 Experimental Machinist 1El Segundo, CA$32 to $38.00 DOE1 year02/19/2019MANO, OM
Search request
Documents found: